Preview of NWS' New Version of Forecast
This preview is not operational and should not be used for support decisions.

Regional Weather Roundup (RWR)

Issued by National Weather Service (NWS)

                            
000
ASUS45 KCYS 211110
RWRWY 

WYOMING REGIONAL WEATHER ROUNDUP
NATIONAL WEATHER SERVICE CHEYENNE WY
500 AM MDT WED AUG 21 2019

NOTE:  "FAIR" INDICATES FEW OR NO CLOUDS BELOW 12,000 FEET
WITH NO SIGNIFICANT WEATHER AND/OR OBSTRUCTIONS TO VISIBILITY.

WYZ001-211200-
...YELLOWSTONE NATIONAL PARK...
  
CITY           SKY/WX    TMP DP  RH WIND       PRES   REMARKS
LK YELLOWSTONE   N/A     41  37  86 NW3       30.35F                  
W YELLOWSTONE  NOT AVBL                                               

$$
WYZ002>013-054>058-071-098>099-211200-
...NORTHERN WYOMING...
  
CITY           SKY/WX    TMP DP  RH WIND       PRES   REMARKS
JACKSON        CLEAR     51  36  56 N3        30.25S                  
CODY           CLEAR     57  49  74 S7        30.18S                  
GREYBULL       PTCLDY    65  49  56 NW10      30.08S                  
WORLAND        PTCLDY    63  52  67 SE7       30.11R                  
SHERIDAN       CLEAR     60  52  74 NW7       30.11R                  
BUFFALO        MOCLDY    63  53  70 S9        30.15F                  
GILLETTE       CLOUDY    65  54  67 SE16      30.12F                  
HULETT         FAIR      59  55  88 CALM      30.16S                  
NEWCASTLE      FAIR      61  50  67 CALM      30.17R                  

$$
WYZ014>020-022>026-101>103-211200-
...CENTRAL WYOMING...
  
CITY           SKY/WX    TMP DP  RH WIND       PRES   REMARKS
BIG PINEY      CLEAR     43  26  51 E7        30.27R                  
PINEDALE       CLEAR     41  32  70 W5        30.29R                  
DUBOIS         FAIR      50  34  53 NW8       30.31R                  
LANDER         CLEAR     62  50  64 S3        30.20R                  
RIVERTON       CLEAR     62  47  57 N6        30.18S                  
CASPER         CLEAR     53  47  79 W5        30.18S                  
DOUGLAS        CLEAR     58  52  80 E8        30.16R                  

$$
WYZ021-027>030-104>119-211200-
...SOUTHERN WYOMING...
  
CITY           SKY/WX    TMP DP  RH WIND       PRES   REMARKS
EVANSTON       CLEAR     55  21  26 S7        30.26S                  
KEMMERER       CLEAR     50  27  40 NW10      30.27S                  
FORT BRIDGER   NOT AVBL                                               
ROCK SPRINGS   CLEAR     58  46  64 NE8       30.25R                  
DIXON          FAIR      44  25  47 SE3       30.25R                  
RAWLINS        CLEAR     50  45  83 N8        30.25R                  
SARATOGA       FAIR      46  41  81 SE5       30.26R                  
LARAMIE        CLEAR     51  49  92 CALM      30.27R                  
CHEYENNE       MOCLDY    59  50  72 CALM      30.23F                  
TORRINGTON     MOCLDY    61  57  87 NW3       30.11F                  
PINE BLUFFS    FAIR      57  54  88 CALM      30.17F                  

$$
  

000
ASUS45 KCYS 211110
RWRWY 

WYOMING REGIONAL WEATHER ROUNDUP
NATIONAL WEATHER SERVICE CHEYENNE WY
500 AM MDT WED AUG 21 2019

NOTE:  "FAIR" INDICATES FEW OR NO CLOUDS BELOW 12,000 FEET
WITH NO SIGNIFICANT WEATHER AND/OR OBSTRUCTIONS TO VISIBILITY.

WYZ001-211200-
YELLOWSTONE NATIONAL PARK
  
CITY           SKY/WX    TMP DP  RH WIND       PRES   REMARKS
LK YELLOWSTONE   N/A     41  37  86 NW3       30.35F                  
W YELLOWSTONE  NOT AVBL                                               

$$
WYZ002>013-054>058-071-098>099-211200-
NORTHERN WYOMING
  
CITY           SKY/WX    TMP DP  RH WIND       PRES   REMARKS
JACKSON        FAIR      51  36  56 N3        30.25S                  
CODY           FAIR      57  49  74 S7        30.18S                  
GREYBULL       FAIR      65  49  56 NW10      30.08S                  
WORLAND        FAIR      63  52  67 SE7       30.11R                  
SHERIDAN       FAIR      60  52  74 NW7       30.11R                  
BUFFALO        FAIR      63  53  70 S9        30.15F                  
GILLETTE       FAIR      65  54  67 SE16      30.12F                  
HULETT         FAIR      59  55  88 CALM      30.16                   
NEWCASTLE      FAIR      61  50  67 CALM      30.17                   

$$
WYZ014>020-022>026-101>103-211200-
CENTRAL WYOMING
  
CITY           SKY/WX    TMP DP  RH WIND       PRES   REMARKS
BIG PINEY      FAIR      43  26  51 E7        30.27R                  
PINEDALE       FAIR      41  32  70 W5        30.29                   
DUBOIS         FAIR      50  34  53 NW8       30.31                   
LANDER         FAIR      62  50  64 S3        30.20R                  
RIVERTON       FAIR      62  47  57 N6        30.18S                  
CASPER         FAIR      53  47  79 W5        30.18S                  
DOUGLAS        FAIR      58  52  80 E8        30.16R                  

$$
WYZ021-027>030-104>119-211200-
SOUTHERN WYOMING
  
CITY           SKY/WX    TMP DP  RH WIND       PRES   REMARKS
EVANSTON       FAIR      55  21  26 S7        30.26S                  
KEMMERER       FAIR      50  27  40 NW10      30.27                   
ROCK SPRINGS   FAIR      58  46  64 NE8       30.25R                  
DIXON          FAIR      44  25  47 SE3       30.25R                  
RAWLINS        FAIR      50  45  83 N8        30.25R                  
SARATOGA       FAIR      46  41  81 SE5       30.26R                  
LARAMIE        FAIR      51  49  92 CALM      30.27R                  
CHEYENNE       MOCLDY    59  50  72 CALM      30.23F                  
TORRINGTON     FAIR      61  57  87 NW3       30.11F                  
PINE BLUFFS    FAIR      57  54  88 CALM      30.17F                  

$$